EA1AML-1 Vega de Espinareda ES current weather conditions

sailwx.info

Wind from 090 at 1 knots gusting 3

Air temperature 17.2° C
Dewpoint 17.2° C

Last reported at 2014-Jul-30 08:47 UTC.
Time now 2014-Jul-30 09:08 UTC

Location: N 42°43' W 006°39'.
View on Google Maps.

See reports from other nearby stations

  
Tides and Currents Weather Stations Pressure Air Temp Water Temp Dewpoint Dewpoint Depression Visibility Wind Speed Wind Dir Waves Ship Positions
date/time (UTC)wind fromknots sea level pressurealtimeterstation pressurevisibilityair tempwater tempwave heightnotes
2014-Jul-30 08:47 090 1 gusting 3 17.2
2014-Jul-30 08:44 090 1 gusting 3 17.2
2014-Jul-30 08:24 360 16.1
2014-Jul-30 08:14 045 15.6
2014-Jul-30 07:44 315 13.9
2014-Jul-30 07:34 045 13.9
2014-Jul-30 07:04 135 11.7
2014-Jul-30 06:54 135 11.7
2014-Jul-30 06:44 135 11.1
2014-Jul-30 06:34 360 11.1
2014-Jul-30 06:24 180 10.6
2014-Jul-30 05:54 135 9.4
2014-Jul-30 05:04 180 2 gusting 3 10.0
2014-Jul-30 03:54 180 0 gusting 4 11.1
2014-Jul-30 03:34 180 0 gusting 2 11.1
2014-Jul-30 03:14 045 11.7
2014-Jul-30 03:04 315 12.2
2014-Jul-30 02:44 180 12.8
2014-Jul-30 02:24 180 12.8
2014-Jul-30 02:14 180 12.8
2014-Jul-30 01:54 225 13.3
2014-Jul-30 01:44 135 13.3
2014-Jul-30 01:34 225 13.3
2014-Jul-30 01:24 225 13.9
2014-Jul-30 01:14 270 13.9
2014-Jul-30 01:04 135 14.4
2014-Jul-30 00:44 135 14.4
2014-Jul-30 00:24 090 15.0
2014-Jul-30 00:14 180 0 gusting 2 15.0
2014-Jul-30 00:04 135 1 gusting 2 15.0
2014-Jul-29 23:44 180 15.6
2014-Jul-29 23:36 270 15.6
2014-Jul-29 23:24 135 15.6
2014-Jul-29 22:54 180 1 gusting 5 15.6
2014-Jul-29 22:44 180 2 gusting 5 16.1
2014-Jul-29 22:34 180 2 gusting 3 17.2
2014-Jul-29 22:24 090 17.2
2014-Jul-29 22:04 225 18.3
2014-Jul-29 21:54 225 18.3
2014-Jul-29 21:44 270 18.9
2014-Jul-29 21:34 225 19.4
2014-Jul-29 21:24 180 19.4
2014-Jul-29 21:14 315 20.0
2014-Jul-29 21:04 360 20.0
2014-Jul-29 20:54 270 20.0
2014-Jul-29 20:46 045 0 gusting 2 20.6
2014-Jul-29 20:34 090 0 gusting 6 20.6
2014-Jul-29 20:24 090 2 gusting 6 21.1
2014-Jul-29 20:04 090 2 gusting 4 21.1
2014-Jul-29 19:54 360 21.7
2014-Jul-29 19:44 360 1 gusting 2 22.2
2014-Jul-29 19:34 045 22.8
2014-Jul-29 19:24 090 23.3
2014-Jul-29 19:04 180 0 gusting 7 24.4
2014-Jul-29 18:54 135 2 gusting 6 25.0
2014-Jul-29 18:45 045 0 gusting 7 25.0
2014-Jul-29 18:34 090 3 gusting 8 25.6
2014-Jul-29 18:04 045 2 gusting 8 26.1
2014-Jul-29 17:24 135 4 gusting 11 26.7
2014-Jul-29 16:54 045 0 gusting 6 27.8
2014-Jul-29 16:44 360 1 gusting 7 27.8
2014-Jul-29 16:14 315 2 gusting 4 27.8
2014-Jul-29 16:04 112 27.2
2014-Jul-29 15:55 090 3 gusting 7 27.2
2014-Jul-29 15:34 360 4 gusting 10 27.2
2014-Jul-29 15:24 045 4 gusting 9 27.2
2014-Jul-29 15:15 360 27.2
2014-Jul-29 15:05 135 2 gusting 4 27.2
2014-Jul-29 14:54 135 1 gusting 6 27.2
2014-Jul-29 14:44 360 26.7
2014-Jul-29 14:34 045 1 gusting 7 26.1
2014-Jul-29 14:14 360 4 gusting 7 25.6
2014-Jul-29 14:05 022 3 gusting 7 25.6
2014-Jul-29 13:54 315 4 gusting 8 25.6
2014-Jul-29 13:44 360 2 gusting 11 25.6
2014-Jul-29 13:34 045 0 gusting 3 25.6
2014-Jul-29 13:24 315 0 gusting 8 25.6
2014-Jul-29 13:14 045 0 gusting 4 25.0
2014-Jul-29 13:04 360 2 gusting 10 24.4
2014-Jul-29 12:55 360 3 gusting 7 23.9
2014-Jul-29 12:44 045 5 gusting 10 23.9
2014-Jul-29 12:34 360 6 gusting 10 23.3
2014-Jul-29 12:24 360 7 gusting 9 23.3
2014-Jul-29 12:14 045 6 gusting 9 23.3
2014-Jul-29 11:55 315 2 gusting 6 22.8
2014-Jul-29 11:44 360 0 gusting 7 22.2
2014-Jul-29 11:24 315 2 gusting 5 21.7
2014-Jul-29 11:14 360 2 gusting 6 22.2
2014-Jul-29 11:04 135 22.8
2014-Jul-29 10:44 135 1 gusting 6 22.2
2014-Jul-29 10:34 315 21.1
2014-Jul-29 10:24 045 0 gusting 10 21.1
2014-Jul-29 10:14 135 2 gusting 7 21.1
2014-Jul-29 10:04 112 1 gusting 6 20.6
2014-Jul-29 09:44 360 1 gusting 7 20.0
2014-Jul-29 09:35 090 5 gusting 7 20.0
2014-Jul-29 08:55 090 3 gusting 6 18.9
2014-Jul-29 08:44 180 3 gusting 7 18.9
2014-Jul-29 08:34 090 2 gusting 7 18.3
2014-Jul-29 08:25 135 3 gusting 7 17.8
2014-Jul-29 08:14 112 5 gusting 8 17.8
2014-Jul-29 08:04 090 2 gusting 8 17.2
2014-Jul-29 07:54 135 3 gusting 10 17.2
2014-Jul-29 07:44 135 3 gusting 8 16.7
2014-Jul-29 07:14 135 2 gusting 6 16.1
2014-Jul-29 07:04 158 3 gusting 8 16.1
2014-Jul-29 06:54 180 3 gusting 8 15.6
2014-Jul-29 06:44 158 2 gusting 7 15.6
2014-Jul-29 06:34 158 2 gusting 8 15.0
2014-Jul-29 06:04 180 3 gusting 7 15.0
2014-Jul-29 05:54 135 2 gusting 7 14.4
2014-Jul-29 05:44 180 3 gusting 7 13.9
2014-Jul-29 05:34 135 2 gusting 8 13.9
2014-Jul-29 05:14 225 1 gusting 7 14.4
2014-Jul-29 05:04 180 1 gusting 5 14.4
2014-Jul-29 04:54 225 14.4
2014-Jul-29 04:44 135 0 gusting 5 15.0
2014-Jul-29 04:34 090 15.0
2014-Jul-29 04:14 180 15.0
2014-Jul-29 04:04 090 1 gusting 3 15.0
2014-Jul-29 03:54 112 1 gusting 13 15.0
2014-Jul-29 03:44 135 4 gusting 13 15.0
2014-Jul-29 03:34 135 4 gusting 8 15.0
2014-Jul-29 03:25 158 4 gusting 10 15.0
2014-Jul-29 03:14 180 2 gusting 10 15.6
2014-Jul-29 03:04 180 2 gusting 6 15.6
2014-Jul-29 02:55 135 2 gusting 8 15.6
2014-Jul-29 02:34 180 3 gusting 10 15.6
2014-Jul-29 02:24 135 4 gusting 11 15.6
2014-Jul-29 02:05 180 0 gusting 5 15.6
2014-Jul-29 01:54 180 0 gusting 5 15.6
2014-Jul-29 01:44 158 2 gusting 7 15.6
2014-Jul-29 01:34 158 3 gusting 7 15.6
2014-Jul-29 01:24 180 1 gusting 6 15.6
2014-Jul-29 01:05 180 2 gusting 6 16.1
2014-Jul-29 00:44 180 4 gusting 7 16.1
2014-Jul-29 00:24 180 2 gusting 10 16.7
2014-Jul-28 23:54 180 0 gusting 5 16.7
2014-Jul-28 23:44 180 17.2
2014-Jul-28 23:24 180 2 gusting 6 17.2
2014-Jul-28 23:14 135 1 gusting 7 17.2
2014-Jul-28 23:04 180 3 gusting 8 17.2
2014-Jul-28 22:54 135 3 gusting 8 17.2
2014-Jul-28 22:24 180 5 gusting 8 17.8
2014-Jul-28 22:14 180 2 gusting 7 17.8
2014-Jul-28 21:54 180 18.3
2014-Jul-28 21:44 315 1 gusting 5 18.3
2014-Jul-28 21:24 135 0 gusting 6 18.9
2014-Jul-28 21:04 180 0 gusting 9 18.9
2014-Jul-28 20:57 135 5 gusting 10 18.9
2014-Jul-28 20:45 180 5 gusting 10 18.9
2014-Jul-28 20:04 135 4 gusting 13 20.0
2014-Jul-28 19:35 135 2 gusting 16 20.6
2014-Jul-28 19:14 045 5 gusting 15 21.1
2014-Jul-28 19:04 090 8 gusting 13 21.7
2014-Jul-28 18:34 135 2 gusting 18 22.2
2014-Jul-28 18:24 090 7 gusting 17 22.2
2014-Jul-28 18:14 045 6 gusting 20 22.8
2014-Jul-28 18:04 135 7 gusting 17 22.8
2014-Jul-28 17:54 090 7 gusting 18 22.8
2014-Jul-28 17:34 135 11 gusting 18 23.9
2014-Jul-28 17:25 135 5 gusting 17 23.9
2014-Jul-28 17:14 135 7 gusting 18 24.4
2014-Jul-28 17:04 135 6 gusting 13 25.0
2014-Jul-28 16:54 112 6 gusting 14 25.0
2014-Jul-28 16:44 090 10 gusting 16 25.6
2014-Jul-28 16:35 135 4 gusting 16 25.6
2014-Jul-28 16:24 225 12 gusting 16 26.1
2014-Jul-28 16:04 045 5 gusting 11 26.7
2014-Jul-28 15:54 090 4 gusting 13 26.7
2014-Jul-28 15:45 090 3 gusting 13 26.1
2014-Jul-28 15:34 112 5 gusting 13 26.1
2014-Jul-28 15:14 135 6 gusting 15 26.7
2014-Jul-28 15:04 090 5 gusting 16 26.7
2014-Jul-28 14:55 360 2 gusting 12 26.7
2014-Jul-28 14:44 180 6 gusting 13 26.7
2014-Jul-28 14:34 090 2 gusting 18 26.7
2014-Jul-28 14:24 135 3 gusting 16 26.7
2014-Jul-28 14:16 135 10 gusting 18 26.7
2014-Jul-28 14:05 112 10 gusting 16 26.7
2014-Jul-28 13:44 045 5 gusting 13 27.2
2014-Jul-28 13:34 135 6 gusting 13 27.2
2014-Jul-28 12:44 045 1 gusting 6 27.2
2014-Jul-28 12:34 090 0 gusting 5 26.7
2014-Jul-28 12:14 292 26.7
2014-Jul-28 12:05 090 25.6
2014-Jul-28 11:44 045 1 gusting 7 25.0
2014-Jul-28 11:14 045 1 gusting 6 24.4
2014-Jul-28 11:04 180 0 gusting 2 23.9
2014-Jul-28 10:54 090 23.9
2014-Jul-28 10:44 315 3 gusting 6 23.3
2014-Jul-28 10:34 045 2 gusting 6 23.3
2014-Jul-28 10:14 360 3 gusting 6 22.2
2014-Jul-28 10:06 090 21.7
2014-Jul-28 09:54 045 0 gusting 3 21.7
2014-Jul-28 09:45 360 0 gusting 5 21.1
2014-Jul-28 09:34 360 1 gusting 2 20.6
2014-Jul-28 09:14 360 0 gusting 3 20.0